Location: Carrières
(48.9495°N, 2.0407°E)
Time: 02:17:43
(UTC+00:00)

Transit 2A - Pass Details

Date: 26 April 2024
Orbit: 594 x 957 km, 66.7° (Epoch: 19 May)

Event Time Altitude Azimuth Distance (km) Brightness Sun altitude
Rises 09:56:47 0° 319° (NW) 3,111 8.7 47.8°
Reaches altitude 10° 10:00:38 10° 350° (N) 2,281 8.2 48.3°
Maximum altitude 10:02:47 12° 14° (NNE) 2,165 8.2 48.5°
Drops below altitude 10° 10:05:01 10° 39° (NE) 2,383 8.6 48.7°
Sets 10:09:15 0° 68° (ENE) 3,410 9.5 49.2°
